YUZGU 9 (RS3S)

Last updated on Sat Jan 28 2023 00:02:07 GMT+0000 (Coordinated Universal Time)

1 53308U 98067TT 23027.31449368 .02807257 11801-4 15243-2 0 9994 2 53308 51.6180 285.8848 0007591 210.1620 254.4300 16.18916240 29758

Satellite not in orbit